Miami, FL

5:26 AM EDT on April 25, 2018 (GMT -0400)
Miami International

Weather History for KMIA - December, 2011

Change the Weather History Date:

Wednesday, December 21, 2011

  Actual Average Record
Temperature  
Mean Temperature 75 °F 70 °F  
Max Temperature 80 °F 77 °F 85 °F (1948)
Min Temperature 70 °F 62 °F 37 °F (1935)
Degree Days  
Heating Degree Days 0 1  
Month to date heating degree days 0 17  
Since 1 July heating degree days 0 20  
Cooling Degree Days 10 6  
Month to date cooling degree days 186 146  
Year to date cooling degree days 4917 4518  
Growing Degree Days 25 (Base 50)    
Moisture  
Dew Point 63 °F    
Average Humidity 67    
Maximum Humidity 79    
Minimum Humidity 54    
Precipitation  
Precipitation 0.00 in 0.07 in 3.15 in (1994)
Month to date precipitation 1.04 1.45  
Year to date precipitation 63.78 61.31  
Snow  
Snow 0.00 in - - ()
Month to date snowfall 0.0  
Since 1 July snowfall 0.0  
Snow Depth 0.00 in    
Sea Level Pressure  
Sea Level Pressure 30.13 in    
Wind  
Wind Speed 11 mph (ESE)    
Max Wind Speed 20 mph    
Max Gust Speed 25 mph    
Visibility 10 miles    
Events      
T = Trace of Precipitation, MM = Missing Value Source: NWS Daily Summary

Daily Weather History Graph

Daily Weather History Graph

Search for Another Location

Airport or City:

Astronomy

Dec. 21, 2011 Rise Set
Actual Time 7:03 AM EST 5:35 PM EST
Civil Twilight 6:38 AM EST 6:00 PM EST
Nautical Twilight 6:09 AM EST 6:29 PM EST
Astronomical Twilight 5:41 AM EST 6:57 PM EST
Moon 3:41 AM EST (12/21) 2:48 PM EST (12/21)
Length of Visible Light 11h 22m
Length of Day
10h 31m
Waning Crescent, 12% of the Moon is Illuminated
Dec 21
Waning Crescent
Dec 24
New
Jan 1
First Quarter
Jan 9
Full
Jan 16
Last Quarter

Hourly Weather History & Observations

Time (EST) Temp. Dew Point Humidity Pressure Visibility Wind Dir Wind Speed Gust Speed Precip Events Conditions
12:53 AM 72.0 °F 60.1 °F 66% 30.16 in 10.0 mi ESE 12.7 mph - N/A   Scattered Clouds
1:53 AM 72.0 °F 62.1 °F 71% 30.13 in 10.0 mi ESE 13.8 mph - N/A   Scattered Clouds
2:53 AM 72.0 °F 63.0 °F 73% 30.11 in 10.0 mi ESE 11.5 mph - N/A   Scattered Clouds
3:53 AM 73.0 °F 63.0 °F 71% 30.11 in 10.0 mi ESE 13.8 mph - N/A   Scattered Clouds
4:53 AM 72.0 °F 62.1 °F 71% 30.11 in 10.0 mi SE 12.7 mph - N/A   Scattered Clouds
5:53 AM 73.0 °F 62.1 °F 68% 30.12 in 10.0 mi ESE 10.4 mph - N/A   Scattered Clouds
6:53 AM 72.0 °F 63.0 °F 73% 30.14 in 10.0 mi SE 11.5 mph - N/A   Scattered Clouds
7:53 AM 73.9 °F 63.0 °F 68% 30.16 in 10.0 mi SE 11.5 mph 19.6 mph N/A   Scattered Clouds
8:53 AM 75.9 °F 64.0 °F 67% 30.17 in 10.0 mi SE 12.7 mph - N/A   Scattered Clouds
9:53 AM 78.1 °F 61.0 °F 56% 30.19 in 10.0 mi SE 13.8 mph 21.9 mph N/A   Partly Cloudy
10:53 AM 79.0 °F 61.0 °F 54% 30.17 in 10.0 mi SE 13.8 mph 24.2 mph N/A   Scattered Clouds
11:53 AM 79.0 °F 61.0 °F 54% 30.16 in 10.0 mi SE 12.7 mph 23.0 mph N/A   Scattered Clouds
12:53 PM 79.0 °F 61.0 °F 54% 30.13 in 10.0 mi SE 12.7 mph 21.9 mph N/A   Scattered Clouds
1:53 PM 77.0 °F 62.1 °F 60% 30.10 in 10.0 mi SE 17.3 mph 24.2 mph N/A   Scattered Clouds
2:53 PM 77.0 °F 61.0 °F 58% 30.10 in 10.0 mi SE 10.4 mph 21.9 mph N/A   Scattered Clouds
3:53 PM 77.0 °F 63.0 °F 62% 30.09 in 10.0 mi ESE 13.8 mph - N/A   Scattered Clouds
4:53 PM 75.9 °F 63.0 °F 64% 30.09 in 10.0 mi SE 10.4 mph - N/A   Scattered Clouds
5:53 PM 75.0 °F 64.0 °F 69% 30.11 in 10.0 mi SE 4.6 mph - N/A   Scattered Clouds
6:53 PM 73.9 °F 64.0 °F 71% 30.12 in 10.0 mi ESE 4.6 mph - N/A   Partly Cloudy
7:53 PM 73.9 °F 64.9 °F 73% 30.13 in 10.0 mi ESE 6.9 mph - N/A   Scattered Clouds
8:53 PM 73.0 °F 64.9 °F 76% 30.14 in 10.0 mi East 5.8 mph - N/A   Partly Cloudy
9:53 PM 72.0 °F 64.0 °F 76% 30.14 in 10.0 mi East 4.6 mph - N/A   Clear
10:53 PM 71.1 °F 64.9 °F 81% 30.13 in 10.0 mi East 5.8 mph - N/A   Partly Cloudy
11:53 PM 73.0 °F 66.0 °F 79% 30.12 in 10.0 mi ESE 6.9 mph - N/A   Partly Cloudy